KMASWX Weather Reports


time (UTC)temp
C
wind
direction
speed
KPH
gust
KPH
rain 1hr
cm
rain 24hr
cm
rain mn
cm
humidity
%
barometer
mb
20260506111923 10 1 0.0 0.0 0.00 0.00 0.00 63
20260506111419 10 1 0.0 0.0 0.00 0.00 0.00 62
20260506110911 11 1 0.0 0.0 0.00 0.00 0.00 61
20260506110408 10 1 0.0 0.0 0.00 0.00 0.00 62
20260506105900 11 1 0.0 0.0 0.00 0.00 0.00 61
20260506105357 11 1 0.0 0.0 0.00 0.00 0.00 60
20260506104854 11 1 0.0 0.0 0.00 0.00 0.00 60
20260506104350 11 1 0.0 3.2 0.00 0.00 0.00 60
20260506103842 11 2 0.0 0.0 0.00 0.00 0.00 60
20260506103338 11 2 0.0 6.4 0.00 0.00 0.00 60
20260506102835 10 15 4.8 8.0 0.00 0.00 0.00 61
20260506102331 11 0 4.8 8.0 0.00 0.00 0.00 61
20260506101827 11 8 4.8 6.4 0.00 0.00 0.00 61
20260506101324 11 39 3.2 9.7 0.00 0.00 0.00 62
20260506095809 11 323 0.0 4.8 0.00 0.00 0.00 60
20260506095306 11 313 1.6 4.8 0.00 0.00 0.00 59
20260506094254 11 303 0.0 3.2 0.00 0.00 0.00 59
20260506093750 11 37 0.0 11.3 0.00 0.00 0.00 59
20260506092740 12 4 9.7 14.5 0.00 0.00 0.00 58
20260506092236 12 28 0.0 0.0 0.00 0.00 0.00 56
20260506091729 12 28 0.0 0.0 0.00 0.00 0.00 56
20260506090722 12 28 0.0 4.8 0.00 0.00 0.00 54
20260506090218 12 11 3.2 3.2 0.00 0.00 0.00 53
20260506085711 13 327 0.0 0.0 0.00 0.00 0.00 53
20260506085207 13 323 0.0 0.0 0.00 0.00 0.00 53
20260506084659 13 323 0.0 4.8 0.00 0.00 0.00 52
20260506084156 13 307 0.0 4.8 0.00 0.00 0.00 53
20260506083652 13 5 0.0 0.0 0.00 0.00 0.00 54
20260506083146 13 5 0.0 0.0 0.00 0.00 0.00 53
20260506082642 13 5 0.0 3.2 0.00 0.00 0.00 51
20260506082139 14 8 3.2 6.4 0.00 0.00 0.00 49
20260506081635 14 25 0.0 3.2 0.00 0.00 0.00 50
20260506081127 14 338 3.2 0.0 0.00 0.00 0.00 49
20260506080624 14 29 0.0 0.0 0.00 0.00 0.00 50
20260506080120 13 29 0.0 0.0 0.00 0.00 0.00 51
20260506073048 14 33 3.2 6.4 0.00 0.00 0.00 50
20260506072544 15 330 6.4 0.0 0.00 0.00 0.00 49
20260506072040 15 45 0.0 8.0 0.00 0.00 0.00 48
20260506071536 15 23 3.2 8.0 0.00 0.00 0.00 47
20260506071031 15 23 4.8 3.2 0.00 0.00 0.00 46
20260506070525 15 9 0.0 0.0 0.00 0.00 0.00 46
20260506061942 16 60 0.0 0.0 0.00 0.00 0.00 44
20260506061438 16 60 0.0 8.0 0.00 0.00 0.00 44
20260506060933 16 15 6.4 4.8 0.00 0.00 0.00 44
20260506060430 17 202 0.0 3.2 0.00 0.00 0.00 43
20260506051343 17 323 0.0 8.0 0.00 0.00 0.00 41
20260506050839 18 358 6.4 8.0 0.00 0.00 0.00 40
20260506050335 18 261 1.6 4.8 0.00 0.00 0.00 39
20260506044824 19 2 4.8 8.0 0.00 0.00 0.00 37
20260506044319 19 7 6.4 8.0 0.00 0.00 0.00 38
20260506043812 19 35 6.4 9.7 0.00 0.00 0.00 38
20260506042805 21 101 1.6 4.8 0.00 0.00 0.00 34
20260506042305 21 307 0.0 9.7 0.00 0.00 0.00 32
20260506041251 21 310 6.4 14.5 0.00 0.00 0.00 33
20260506040748 21 300 8.0 17.7 0.00 0.00 0.00 32
20260506040244 22 293 8.0 14.5 0.00 0.00 0.00 31
20260506035738 21 302 12.9 14.5 0.00 0.00 0.00 31
20260506035230 21 303 9.7 14.5 0.00 0.00 0.00 32
20260506034727 20 295 4.8 11.3 0.00 0.00 0.00 34
20260506034223 20 310 8.0 8.0 0.00 0.00 0.00 36
20260506033216 21 286 0.0 0.0 0.00 0.00 0.00 35
20260506032205 22 286 0.0 4.8 0.00 0.00 0.00 32
20260506031702 23 286 0.0 0.0 0.00 0.00 0.00 30
20260506031158 23 262 0.0 0.0 0.00 0.00 0.00 29
20260506030655 24 262 0.0 0.0 0.00 0.00 0.00 28
20260506030148 25 298 0.0 6.4 0.00 0.00 0.00 26
20260506025645 26 298 0.0 9.7 0.00 0.00 0.00 24
20260506025141 26 271 4.8 9.7 0.00 0.00 0.00 23
20260506024634 26 257 6.4 9.7 0.00 0.00 0.00 22
20260506024130 26 260 8.0 6.4 0.00 0.00 0.00 22
20260506023627 27 261 4.8 6.4 0.00 0.00 0.00 21
20260506023123 27 215 4.8 6.4 0.00 0.00 0.00 19
20260506022616 27 199 3.2 0.0 0.00 0.00 0.00 19
20260506022112 28 133 0.0 1.6 0.00 0.00 0.00 19
20260506021605 28 133 0.0 6.4 0.00 0.00 0.00 18
20260506021101 28 153 3.2 8.0 0.00 0.00 0.00 18
20260506020557 28 151 3.2 9.7 0.00 0.00 0.00 18
20260506020050 28 142 8.0 11.3 0.00 0.00 0.00 17
20260506015547 28 118 6.4 9.7 0.00 0.00 0.00 18
20260506015043 28 158 9.7 8.0 0.00 0.00 0.00 18
20260506014536 28 158 6.4 11.3 0.00 0.00 0.00 17
20260506014032 28 129 8.0 11.3 0.00 0.00 0.00 17
20260506013528 28 170 8.0 9.7 0.00 0.00 0.00 18
20260506013025 28 177 8.0 11.3 0.00 0.00 0.00 17
20260506012521 28 199 8.0 9.7 0.00 0.00 0.00 17
20260506012015 28 136 8.0 9.7 0.00 0.00 0.00 17
20260506011511 28 156 4.8 8.0 0.00 0.00 0.00 17
20260506011008 28 165 4.8 8.0 0.00 0.00 0.00 16
20260506010501 28 172 0.0 9.7 0.00 0.00 0.00 18
20260506005454 28 151 8.0 11.3 0.00 0.00 0.00 18
20260506004950 28 139 6.4 11.3 0.00 0.00 0.00 18
20260506004444 28 165 11.3 12.9 0.00 0.00 0.00 18
20260506003940 28 154 9.7 12.9 0.00 0.00 0.00 18
20260506003437 28 137 12.9 14.5 0.00 0.00 0.00 18
20260506002933 28 143 11.3 12.9 0.00 0.00 0.00 17
20260506002430 29 157 6.4 9.7 0.00 0.00 0.00 17
20260506001925 28 194 3.2 9.7 0.00 0.00 0.00 18
20260506001422 28 135 3.2 9.7 0.00 0.00 0.00 17
20260506000918 28 135 3.2 12.9 0.00 0.00 0.00 17
20260506000416 28 143 12.9 14.5 0.00 0.00 0.00 18
20260505235911 28 167 12.9 12.9 0.00 0.00 0.00 18
20260505234901 28 161 11.3 11.3 0.00 0.00 0.00 18
20260505234357 28 220 4.8 12.9 0.00 0.00 0.00 17
20260505233854 28 250 0.0 12.9 0.00 0.00 0.00 19
20260505233347 28 149 8.0 11.3 0.00 0.00 0.00 18
20260505232843 27 182 11.3 9.7 0.00 0.00 0.00 19
20260505232340 28 261 4.8 12.9 0.00 0.00 0.00 19
20260505231833 27 225 8.0 16.1 0.00 0.00 0.00 18
20260505230825 27 168 6.4 12.9 0.00 0.00 0.00 17
20260505230322 27 181 8.0 14.5 0.00 0.00 0.00 18
20260505225312 27 129 6.4 11.3 0.00 0.00 0.00 18
20260505224808 27 286 1.6 11.3 0.00 0.00 0.00 19
20260505224305 27 212 8.0 11.3 0.00 0.00 0.00 20
20260505223758 27 229 9.7 14.5 0.00 0.00 0.00 19
20260505223254 27 156 9.7 16.1 0.00 0.00 0.00 19
20260505222751 27 160 11.3 11.3 0.00 0.00 0.00 19
20260505222244 27 188 6.4 12.9 0.00 0.00 0.00 18
20260505221739 26 133 11.3 14.5 0.00 0.00 0.00 19
20260505220730 26 251 8.0 12.9 0.00 0.00 0.00 20
20260505220227 27 92 8.0 12.9 0.00 0.00 0.00 19
20260505215723 27 187 11.3 12.9 0.00 0.00 0.00 19
20260505214716 26 191 6.4 16.1 0.00 0.00 0.00 19
20260505213706 26 254 3.2 12.9 0.00 0.00 0.00 23
20260505213202 26 158 6.4 17.7 0.00 0.00 0.00 19
20260505212152 26 188 9.7 14.5 0.00 0.00 0.00 20
20260505211648 26 239 6.4 8.0 0.00 0.00 0.00 19
20260505211144 27 157 8.0 8.0 0.00 0.00 0.00 19
20260505210638 26 40 6.4 16.1 0.00 0.00 0.00 19
20260505205631 26 171 9.7 11.3 0.00 0.00 0.00 21
20260505205123 26 158 6.4 9.7 0.00 0.00 0.00 19
20260505204619 26 1 0.0 11.3 0.00 0.00 0.00 19
20260505204116 25 59 0.0 12.9 0.00 0.00 0.00 20
20260505203612 25 150 8.0 9.7 0.00 0.00 0.00 21
20260505203106 25 30 3.2 9.7 0.00 0.00 0.00 20
20260505202602 26 240 8.0 8.0 0.00 0.00 0.00 20
20260505202058 25 222 3.2 16.1 0.00 0.00 0.00 21
20260505201551 25 146 4.8 14.5 0.00 0.00 0.00 20
20260505201048 25 104 8.0 12.9 0.00 0.00 0.00 20
20260505200544 25 144 4.8 11.3 0.00 0.00 0.00 19
20260505200037 25 119 1.6 12.9 0.00 0.00 0.00 20
20260505195534 25 139 8.0 11.3 0.00 0.00 0.00 20
20260505194526 23 28 1.6 12.9 0.00 0.00 0.00 21
20260505194023 23 112 4.8 12.9 0.00 0.00 0.00 21
20260505193013 23 153 12.9 11.3 0.00 0.00 0.00 23
20260505192508 23 151 0.0 12.9 0.00 0.00 0.00 21
20260505192002 23 127 6.4 9.7 0.00 0.00 0.00 22
20260505191458 23 104 3.2 12.9 0.00 0.00 0.00 23
20260505190955 23 90 1.6 11.3 0.00 0.00 0.00 23
20260505190451 23 178 0.0 9.7 0.00 0.00 0.00 26
20260505185945 22 230 3.2 11.3 0.00 0.00 0.00 26
20260505185441 22 149 4.8 9.7 0.00 0.00 0.00 26
20260505184430 22 149 6.4 9.7 0.00 0.00 0.00 26
20260505183926 22 257 0.0 6.4 0.00 0.00 0.00 27
20260505183423 22 174 0.0 4.8 0.00 0.00 0.00 28
20260505182919 22 226 0.0 8.0 0.00 0.00 0.00 26
20260505181909 21 192 0.0 12.9 0.00 0.00 0.00 29
20260505181401 21 206 9.7 12.9 0.00 0.00 0.00 31
20260505180857 20 198 6.4 11.3 0.00 0.00 0.00 31
20260505180354 20 236 3.2 9.7 0.00 0.00 0.00 34
20260505174835 20 59 0.0 8.0 0.00 0.00 0.00 33
20260505174331 20 161 1.6 6.4 0.00 0.00 0.00 34
20260505172816 19 47 3.2 8.0 0.00 0.00 0.00 35
20260505172312 19 136 4.8 8.0 0.00 0.00 0.00 33
20260505171808 19 196 1.6 3.2 0.00 0.00 0.00 35
20260505171302 18 49 0.0 8.0 0.00 0.00 0.00 37
20260505170758 18 126 3.2 9.7 0.00 0.00 0.00 37
20260505170254 18 158 4.8 6.4 0.00 0.00 0.00 36
20260505165748 18 219 3.2 6.4 0.00 0.00 0.00 38
20260505165244 18 102 3.2 9.7 0.00 0.00 0.00 37
20260505164741 18 22 1.6 9.7 0.00 0.00 0.00 40
20260505164234 17 116 0.0 8.0 0.00 0.00 0.00
20260505163731 17 158 0.0 9.7 0.00 0.00 0.00 41
20260505163227 16 199 3.2 12.9 0.00 0.00 0.00 41
20260505162723 16 182 1.6 11.3 0.00 0.00 0.00 44
20260505161713 15 226 8.0 9.7 0.00 0.00 0.00 45
20260505160706 15 241 8.0 12.9 0.00 0.00 0.00 45
20260505152625 13 219 6.4 8.0 0.00 0.00 0.00 51
20260505152118 13 234 4.8 8.0 0.00 0.00 0.00 52
20260505151615 13 244 6.4 8.0 0.00 0.00 0.00 52
20260505150608 13 250 6.4 1.6 0.00 0.00 0.00 50
20260505140511 11 45 0.0 0.0 0.00 0.00 0.00 57
20260505124357 10 18 0.0 4.8 0.00 0.00 0.00 58
20260505122339 9 25 3.2 0.0 0.00 0.00 0.00 60
20260505121832 10 312 0.0 0.0 0.00 0.00 0.00 59
20260505121328 10 312 0.0 0.0 0.00 0.00 0.00 58
20260505120825 10 312 0.0 0.0 0.00 0.00 0.00 57
20260505120321 10 312 0.0 9.7 0.00 0.00 0.00 56
20260505115311 10 19 1.6 6.4 0.00 0.00 0.00 56
20260505114807 11 2 4.8 6.4 0.00 0.00 0.00 55
20260505114304 11 25 3.2 3.2 0.00 0.00 0.00 54
20260505113758 11 15 3.2 9.7 0.00 0.00 0.00 54
20260505113254 11 343 0.0 4.8 0.00 0.00 0.00 54